GFSSE_sfc_dewp_021.txt.gz
Dewpoint
71 73 74 74 74 73 73 74 74 74 74 74 75 75 76 76 76 76 76 76 76 75 74 74 74 74 74 74 73 73 73 72 73 73 73 73 72 71 71 70 69 65 71
71 73 74 74 73 73 73 73 74 74 75 76 75 75 75 75 76 76 76 76 75 75 74 74 74 74 74 73 73 72 72 72 73 73 72 72 71 72 71 71 68 69 72
69 72 72 75 75 75 74 74 74 74 74 76 76 76 75 75 75 76 76 75 75 75 74 74 73 73 73 73 73 72 72 72 72 72 72 68 68 71 70 70 71 71 71
68 71 71 75 75 75 74 74 74 74 74 76 77 76 75 75 75 75 75 74 74 74 74 74 73 73 73 73 73 72 72 71 71 72 69 69 67 72 69 71 72 72 70
72 73 73 75 75 75 75 74 75 76 75 76 76 76 75 75 75 75 74 74 74 74 74 73 73 73 73 73 73 72 72 70 71 70 71 71 70 69 69 71 71 71 70
72 72 75 75 75 75 75 75 76 76 76 76 76 75 75 74 74 74 74 74 74 73 73 73 73 73 73 72 73 73 72 70 69 70 71 71 69 70 69 72 69 69 72
70 73 74 75 76 76 76 76 76 75 75 75 75 74 75 74 74 74 74 73 73 73 73 72 73 73 73 72 72 72 72 71 70 71 71 71 70 71 69 71 69 70 71
70 72 73 75 76 76 75 75 76 75 75 75 75 74 74 74 74 74 73 73 72 72 72 73 73 73 73 73 73 73 72 72 70 71 70 72 72 71 70 70 71 71 71
71 72 73 74 75 75 76 75 75 75 75 75 75 75 75 74 74 73 73 73 73 73 73 74 73 73 72 72 72 72 72 71 71 71 69 71 73 71 72 70 70 71 71
70 72 74 74 74 73 74 75 75 75 75 75 75 75 74 74 73 73 74 73 73 73 73 73 73 73 72 72 73 71 70 70 71 71 72 70 73 72 71 72 70 71 71
71 72 72 73 73 74 73 73 74 75 74 75 75 75 74 72 73 72 73 73 71 72 73 74 73 73 72 72 73 73 72 69 71 70 71 72 73 73 72 72 71 72 71
69 71 71 72 72 73 71 74 74 73 71 73 73 75 73 73 74 73 73 73 74 74 73 74 73 72 71 70 70 70 68 69 70 71 70 72 73 73 73 72 71 71 72
69 70 71 74 74 73 73 74 73 72 72 73 75 75 75 73 73 72 72 71 72 71 71 71 71 70 70 70 69 69 69 69 68 69 71 73 72 73 73 73 72 72 71
69 70 71 73 75 75 73 72 72 71 72 71 72 75 74 72 72 72 72 72 73 72 73 72 70 72 71 71 71 70 70 70 68 69 71 73 74 72 73 73 73 72 72
68 69 71 73 74 75 75 72 71 72 71 72 72 72 72 71 72 73 73 74 74 73 72 75 73 72 71 71 71 71 69 70 70 69 69 71 74 75 73 72 72 73 72
69 70 71 73 74 75 74 76 74 73 72 73 72 72 74 72 72 74 73 73 76 72 72 74 74 74 71 71 70 70 70 69 69 70 68 70 72 73 74 73 73 73 73
69 69 70 72 73 74 74 74 73 73 73 72 72 74 74 74 74 75 75 74 72 73 74 73 74 71 72 70 70 68 67 67 66 68 67 68 69 71 72 73 73 74 73
69 69 70 68 71 73 74 73 73 73 73 73 77 74 75 75 76 75 73 76 72 73 71 73 72 70 69 68 68 67 66 66 66 67 67 67 66 67 70 72 74 74 73
70 71 71 71 71 73 74 74 74 75 74 73 73 78 75 75 75 74 77 76 74 72 76 71 71 70 67 66 64 63 65 65 66 64 67 69 68 68 67 72 73 73 72
70 71 72 71 73 74 74 75 74 74 74 74 74 73 75 76 74 76 75 74 73 72 70 69 69 68 67 66 63 62 64 66 65 66 67 64 68 68 69 72 71 70 71
70 71 71 72 75 74 73 72 72 71 72 73 73 75 75 75 74 75 72 73 72 70 69 70 68 67 65 68 64 60 63 65 64 64 65 62 63 64 67 69 70 70 70
69 71 72 73 75 74 73 73 72 73 72 73 73 74 75 74 75 74 74 71 72 68 70 69 69 64 65 68 63 64 58 61 63 63 63 59 60 62 62 64 67 69 70
68 70 72 74 75 74 75 73 74 73 73 72 72 72 73 74 74 74 73 71 72 69 65 69 68 67 62 66 67 63 58 55 58 63 64 60 60 58 60 62 63 63 63
67 69 72 73 75 74 75 73 74 71 69 70 71 71 73 74 74 73 73 72 72 67 68 68 67 67 67 62 65 66 66 65 58 56 58 59 58 56 61 56 57 58 59
66 67 70 73 74 75 75 75 72 72 71 71 70 71 72 73 73 73 72 71 70 66 69 68 68 68 66 65 64 64 65 64 65 58 51 53 56 56 57 58 55 55 56
65 66 68 73 74 75 74 74 74 74 73 70 69 68 68 67 67 70 69 70 70 68 68 67 67 67 67 67 65 64 61 58 58 58 57 57 56 56 55 58 58 56 55

GFSSE_sfc_dewp_024.txt.gz
Dewpoint
71 72 74 74 74 74 73 74 73 73 73 74 74 75 76 76 76 76 76 76 75 75 75 75 74 74 74 73 73 73 72 73 74 73 72 72 71 71 70 69 70 63 71
71 72 74 74 73 74 74 74 74 74 73 74 75 76 75 75 76 76 76 75 75 74 74 74 74 74 74 73 73 72 72 72 72 72 72 72 72 71 70 68 70 69 72
70 71 71 74 74 74 74 74 74 74 74 74 75 75 74 75 76 76 75 75 75 75 74 74 74 74 73 73 72 72 71 71 71 71 70 64 67 71 69 71 71 72 72
68 69 71 75 74 74 74 74 74 74 74 75 75 75 75 75 76 75 74 75 75 74 74 74 73 73 73 73 72 72 72 71 70 70 68 63 63 71 71 72 72 71 72
69 70 73 75 75 75 75 75 75 75 75 75 75 75 75 75 75 74 74 74 74 74 73 73 73 73 73 73 73 72 72 71 71 70 69 66 64 68 71 71 72 70 70
69 69 74 75 75 75 75 75 75 76 75 75 75 75 75 75 74 74 74 74 74 73 73 72 72 72 72 72 72 72 72 70 69 70 70 68 67 70 72 70 70 71 71
67 70 73 76 76 75 75 75 75 75 75 75 75 75 74 74 74 74 74 73 73 72 72 72 73 73 73 72 72 72 72 71 70 70 71 69 68 70 70 70 69 69 72
67 69 71 74 75 75 75 75 75 75 75 75 75 74 74 74 74 74 73 72 72 72 72 73 73 72 72 72 72 71 71 71 69 69 69 70 72 71 70 71 71 70 71
68 69 71 72 74 75 75 75 74 74 75 75 74 74 74 74 74 73 72 72 72 73 73 73 72 71 70 71 71 70 70 70 70 69 67 71 73 71 71 70 72 71 71
67 70 72 73 72 71 72 75 75 75 75 75 75 75 74 74 73 73 73 73 72 72 73 73 73 71 71 71 72 71 72 71 68 69 69 70 74 72 72 71 71 71 71
68 69 70 70 71 71 71 73 75 75 75 75 75 75 73 68 70 69 73 72 71 73 73 73 72 71 71 71 72 71 72 67 67 67 69 73 73 73 71 73 71 72 71
67 69 67 67 69 70 68 73 72 71 70 71 71 72 70 70 71 71 72 73 73 73 73 72 71 72 72 66 68 71 67 66 66 67 68 72 72 73 72 72 71 72 72
67 66 66 68 70 70 70 69 69 69 68 70 73 73 71 70 71 70 70 70 71 72 67 70 69 69 68 68 67 66 67 66 65 65 70 73 73 73 73 73 72 72 72
67 67 68 70 72 71 69 69 68 67 68 68 68 73 71 70 70 71 69 70 72 70 71 70 68 71 69 70 69 68 67 67 66 65 69 73 74 73 73 73 73 73 72
66 67 69 71 74 73 73 69 68 68 67 67 68 69 69 69 70 70 72 69 70 69 69 70 69 69 70 69 69 69 68 68 68 66 65 73 73 74 73 73 73 73 73
65 66 68 70 72 73 73 74 71 69 68 68 67 68 72 70 70 76 70 69 69 69 70 71 71 70 70 69 69 69 69 68 68 69 66 69 72 74 75 74 74 73 73
66 66 68 70 71 73 74 73 72 69 68 68 69 72 73 73 72 76 69 69 68 71 74 74 71 70 68 67 67 67 67 67 64 65 64 64 68 73 73 74 75 74 74
66 68 69 67 69 73 73 73 71 69 69 69 71 70 73 73 76 76 78 68 68 71 70 70 71 64 62 61 62 62 62 62 60 62 61 62 59 60 71 74 73 73 72
67 69 69 69 69 71 74 73 73 74 76 71 77 72 72 73 72 72 70 69 73 70 70 68 65 66 61 59 56 55 59 60 60 59 64 65 64 63 61 73 73 72 72
68 69 70 69 72 73 72 74 76 78 78 72 71 76 74 72 72 72 69 71 72 71 70 67 69 64 61 60 58 56 60 62 63 64 63 62 65 66 65 69 67 68 72
68 70 71 72 74 73 72 71 70 70 77 72 72 74 73 74 73 73 69 70 72 70 69 71 65 61 58 62 60 58 59 62 63 63 63 61 62 64 66 67 67 66 69
68 70 72 73 74 75 72 72 70 70 69 69 71 73 74 74 74 72 73 71 72 67 72 70 66 58 60 64 59 57 54 58 59 61 63 60 60 61 62 64 68 70 71
67 70 72 74 74 75 75 73 73 73 73 71 70 71 72 74 74 74 72 71 72 70 63 66 65 65 57 61 65 59 54 52 54 59 62 58 60 56 57 60 62 62 63
66 69 72 74 76 75 76 75 75 70 67 66 68 67 68 72 72 73 74 73 74 66 66 64 64 64 65 58 62 64 64 63 55 54 56 57 57 55 58 54 55 58 58
65 67 70 74 76 77 77 77 73 73 68 68 69 72 73 73 73 71 74 73 72 63 67 68 67 67 62 61 61 61 64 60 63 55 51 53 55 55 55 56 55 55 56
63 65 67 73 77 77 76 76 76 75 73 68 71 69 66 65 69 73 72 72 70 65 68 66 67 66 66 65 62 62 58 56 56 55 54 55 56 55 54 54 55 56 55

GFSSE_sfc_dewp_030.txt.gz
Dewpoint
71 72 73 74 74 74 74 74 75 77 77 77 77 77 78 78 77 77 77 77 76 76 76 75 74 74 73 73 73 73 74 73 73 72 72 72 71 69 69 69 68 69 73
70 71 74 74 74 74 74 74 75 76 76 77 77 77 77 77 77 77 76 76 76 75 74 74 74 74 73 73 73 72 72 72 72 72 72 72 71 70 71 73 73 71 73
70 71 72 75 75 74 74 74 75 75 76 77 77 77 77 76 76 76 76 75 75 74 74 74 73 73 73 73 72 72 71 70 71 70 71 71 67 71 71 73 73 73 73
67 69 70 75 75 74 75 75 75 75 75 76 76 77 76 76 75 75 75 74 74 74 73 73 73 73 73 73 72 72 71 71 71 70 71 69 66 72 71 72 72 73 73
67 68 73 75 75 75 76 76 76 75 75 76 76 75 75 75 74 74 74 74 73 73 73 73 73 72 72 72 71 72 71 70 71 71 71 68 67 71 72 72 71 71 72
67 69 74 75 75 75 76 76 76 76 75 75 75 75 75 74 74 74 73 73 72 73 73 73 73 72 72 71 71 70 71 71 70 72 70 69 69 72 72 71 72 71 72
67 69 72 76 76 76 76 76 76 76 74 75 75 74 74 74 74 73 72 72 72 73 73 73 72 71 71 71 71 71 72 71 72 72 72 67 71 73 71 72 71 72 73
67 68 71 75 76 76 76 76 76 75 74 75 74 74 74 73 73 72 71 71 72 72 72 73 72 71 70 70 70 72 72 71 71 72 71 68 72 74 69 69 72 72 71
67 70 72 73 75 76 76 75 75 74 75 74 74 74 74 73 73 72 71 71 71 71 72 72 71 70 71 71 71 72 74 73 73 73 71 70 73 73 72 71 71 72 72
66 69 73 74 73 74 73 75 74 74 74 74 73 74 74 74 73 72 74 73 71 71 71 72 73 73 73 74 74 75 75 75 71 70 73 71 74 72 71 72 71 72 72
65 67 68 71 73 73 72 72 74 74 74 74 74 75 75 72 72 72 75 73 72 73 73 73 74 75 75 75 76 76 73 71 72 72 72 74 74 74 73 71 72 72 71
65 66 66 67 68 71 67 74 74 72 72 73 74 75 73 72 73 72 74 75 74 73 74 74 76 74 73 74 73 74 71 71 69 69 71 75 75 73 73 72 72 72 71
68 67 67 70 70 69 72 73 72 72 72 72 76 76 76 74 72 71 73 73 75 75 74 72 73 72 72 72 74 71 71 69 70 67 72 74 75 74 73 74 72 72 72
66 66 67 71 72 73 71 70 71 70 71 70 72 76 77 75 74 75 75 72 75 74 73 72 73 74 72 73 71 71 71 68 70 73 73 75 75 75 74 74 74 72 73
65 66 68 72 75 77 76 72 72 73 68 70 72 74 73 75 72 73 74 74 75 73 73 73 72 74 71 72 71 71 70 71 69 72 72 71 75 76 75 74 74 74 73
65 64 68 70 74 76 77 79 78 76 69 71 69 73 76 76 73 73 76 75 73 73 73 75 75 74 75 73 72 72 71 72 70 69 72 73 75 75 76 75 75 75 74
65 66 68 69 72 75 76 76 77 74 69 72 71 74 76 77 77 78 75 75 73 73 76 73 74 72 73 72 70 72 70 71 68 66 65 65 72 75 76 75 75 75 74
65 69 70 65 71 74 76 76 73 71 74 72 73 74 72 76 77 78 76 74 76 77 74 74 74 72 70 67 65 67 66 64 64 64 64 66 66 66 74 74 76 75 74
66 70 69 71 69 73 75 75 75 75 75 77 72 75 76 74 77 76 75 74 75 73 74 73 73 71 68 65 62 64 66 64 64 59 64 65 65 65 68 74 74 75 74
65 70 71 71 75 75 74 76 75 74 74 75 76 75 76 77 75 75 76 75 74 74 74 72 70 70 67 67 60 61 64 64 66 66 62 62 66 65 68 71 72 71 72
65 69 71 73 76 75 74 72 72 73 74 74 73 77 76 76 75 76 76 74 72 74 73 72 71 68 66 70 66 65 67 65 65 64 62 64 64 64 67 71 71 72 73
66 69 73 74 77 76 74 74 72 72 71 73 73 75 75 76 76 76 76 74 73 72 73 72 70 68 66 70 65 64 61 64 61 61 65 62 62 63 66 67 69 70 72
66 70 72 74 76 75 76 74 75 77 78 72 72 72 75 75 75 76 74 75 74 73 72 72 70 68 66 69 67 65 62 60 62 65 66 63 63 63 65 65 63 64 67
65 70 73 74 76 76 76 76 75 72 72 72 74 72 74 75 74 75 76 75 74 74 73 71 70 69 68 65 67 66 65 64 63 59 64 64 62 60 61 63 62 62 62
64 68 72 75 76 76 76 77 76 74 69 72 72 76 75 76 73 74 74 75 76 73 72 70 71 69 69 67 67 66 67 65 66 61 59 59 63 62 63 61 61 63 62
63 66 70 74 76 76 77 76 77 75 73 72 74 73 73 72 73 75 73 76 75 73 72 69 70 69 69 69 68 67 65 63 61 63 61 60 59 61 62 62 61 62 62

GFSSE_sfc_dewp_033.txt.gz
Dewpoint
71 72 73 73 74 75 75 76 77 78 78 78 78 78 77 77 77 77 77 77 76 76 74 74 74 73 73 73 73 74 74 73 73 72 72 71 70 70 70 71 73 71 72
70 72 74 74 74 75 76 76 77 78 77 78 78 78 77 76 76 77 77 76 75 75 74 74 74 73 73 73 73 72 73 73 73 72 71 70 69 72 73 73 73 71 71
70 72 73 75 74 74 75 76 76 77 76 77 78 78 77 76 76 76 76 75 74 74 74 73 73 73 73 72 72 72 71 72 71 72 72 69 69 72 73 74 74 72 71
71 72 72 75 75 74 74 76 76 75 75 77 77 77 77 75 76 75 75 74 74 74 73 73 73 72 72 72 72 71 71 71 70 71 72 68 67 72 73 73 73 72 72
70 71 73 75 76 75 74 75 76 76 75 76 76 76 76 74 75 74 74 74 73 73 73 72 72 72 71 72 71 72 72 72 71 72 69 67 69 71 72 72 73 73 72
70 72 75 75 76 76 75 75 75 75 75 76 77 76 75 74 74 74 74 73 73 73 73 73 72 72 72 71 71 71 72 72 72 71 67 70 69 72 71 72 72 73 73
69 73 74 76 76 76 76 75 75 75 74 76 76 75 75 74 74 73 73 72 72 73 73 73 72 71 72 72 72 72 72 72 72 71 67 70 70 74 73 73 72 73 73
69 71 73 76 76 76 76 76 76 75 74 76 76 75 76 75 75 74 72 72 72 72 72 72 73 74 74 74 74 74 72 72 71 71 70 70 74 71 72 71 73 73 73
69 70 73 74 75 76 77 76 76 75 75 75 75 75 75 74 74 73 74 73 72 72 72 72 74 75 74 74 75 73 74 74 67 70 69 70 75 70 69 72 72 71 73
70 71 72 74 74 74 74 76 75 75 75 74 74 74 74 74 74 73 75 75 72 71 72 73 75 76 75 75 75 74 73 71 71 66 70 71 75 74 72 71 72 72 73
70 71 72 72 73 72 72 73 76 75 75 74 74 75 75 73 72 72 74 75 73 72 72 74 75 76 74 72 74 75 73 72 71 70 72 72 74 72 73 73 72 72 73
68 70 71 71 71 71 71 72 73 73 73 73 73 73 74 72 71 71 73 74 73 74 71 76 76 74 72 72 71 72 72 71 68 67 70 71 74 74 72 72 73 72 72
66 68 70 71 71 69 68 72 73 72 72 72 72 73 72 73 72 72 73 72 72 71 73 73 72 72 73 72 73 72 69 67 67 70 71 72 74 74 74 72 72 72 72
66 65 66 67 69 69 70 71 71 71 71 71 72 73 72 72 70 71 72 71 72 74 71 71 72 71 71 71 70 70 70 70 67 71 71 74 75 74 74 74 72 72 72
66 67 67 68 70 71 70 70 70 70 71 70 72 71 70 71 71 72 71 72 70 72 72 70 71 71 71 70 69 69 68 70 70 71 71 74 75 74 75 75 74 73 73
65 65 68 68 71 69 71 72 74 70 67 71 71 71 71 71 71 71 72 72 71 70 72 72 71 70 71 70 70 69 68 69 70 71 71 72 74 74 74 74 75 75 73
63 65 68 69 71 71 71 72 71 72 68 68 69 72 71 72 72 71 70 71 72 72 72 71 71 71 70 69 65 69 69 67 67 70 71 71 72 75 74 75 75 75 75
63 67 68 68 69 70 72 73 71 70 69 69 70 71 73 74 73 72 71 71 73 72 70 71 70 68 66 62 59 60 63 60 60 59 60 61 69 70 74 74 74 74 75
63 67 66 68 69 70 72 74 72 71 72 71 71 71 70 73 74 73 72 72 72 71 72 71 69 67 60 59 60 60 60 60 61 60 61 61 63 69 70 73 72 73 72
64 67 67 68 70 71 73 73 73 72 72 73 72 70 74 73 74 72 73 72 71 72 70 68 67 66 63 62 61 60 61 61 59 63 62 62 64 66 68 71 70 70 73
66 67 67 69 72 71 72 72 72 71 71 71 72 73 73 73 72 73 72 72 72 71 68 69 64 60 61 64 60 59 63 60 58 63 62 60 60 65 68 69 70 71 72
65 67 67 69 73 71 72 71 71 71 71 71 72 73 72 73 72 72 72 71 70 69 69 65 62 63 61 64 58 59 57 60 60 61 59 57 59 65 65 65 65 69 70
64 68 68 70 73 72 73 72 72 73 72 71 72 72 72 73 73 73 73 71 71 70 69 65 64 62 60 62 60 59 58 57 60 63 59 58 59 60 62 60 60 63 70
64 68 69 71 73 72 73 71 70 68 70 70 70 70 72 73 73 73 72 70 70 70 67 64 64 63 61 57 63 62 61 59 58 55 60 59 58 56 60 58 58 59 65
64 67 70 70 73 71 71 72 69 70 69 69 68 71 71 72 72 72 72 72 70 70 67 64 62 63 63 63 63 63 61 61 60 56 55 57 60 59 57 58 59 58 62
63 67 70 70 71 72 70 72 73 71 68 67 70 70 70 68 70 72 71 71 70 67 64 65 65 63 63 63 62 62 61 59 58 59 56 54 56 57 59 58 58 59 59

GFSSE_sfc_dewp_036.txt.gz
Dewpoint
70 72 74 74 74 75 76 77 77 78 78 78 78 77 76 76 76 77 77 76 75 74 74 74 73 73 73 73 74 74 73 72 72 72 70 70 71 72 72 73 73 69 72
70 72 74 75 75 76 77 77 77 77 77 77 77 76 75 75 75 76 76 74 74 74 74 73 73 73 73 73 73 73 73 73 72 71 70 68 72 71 72 73 72 70 73
71 72 73 75 75 76 76 77 76 76 76 77 77 76 76 75 75 75 75 74 74 74 73 73 73 73 73 73 73 72 72 73 72 71 70 69 70 72 73 73 72 71 72
71 72 72 75 76 75 76 77 77 75 76 77 77 76 75 75 75 75 74 74 73 73 73 73 73 73 72 72 72 72 72 71 71 71 70 69 69 72 73 72 71 70 71
71 72 72 75 75 75 75 76 76 76 75 75 75 75 75 75 75 74 74 73 73 73 73 73 72 72 72 71 72 72 71 71 72 71 71 68 69 71 72 73 72 73 72
71 72 74 75 74 74 74 75 75 75 75 75 75 75 74 75 74 74 73 73 73 73 73 73 72 72 71 71 72 72 73 74 71 67 68 71 70 71 72 73 72 72 72
71 73 73 76 76 75 75 74 74 75 75 75 75 75 74 74 74 73 73 73 73 73 73 72 71 71 72 72 72 73 75 73 71 69 70 69 70 73 73 73 72 72 71
72 73 74 76 77 76 75 75 75 74 75 75 75 75 74 74 73 73 72 72 72 72 72 73 72 72 71 72 73 73 73 71 70 70 71 71 74 74 73 73 72 73 70
72 73 73 74 75 75 76 75 75 74 75 75 75 75 74 74 73 72 71 72 72 72 72 72 72 74 74 74 74 74 71 68 68 68 70 71 74 73 72 73 73 73 72
71 72 73 74 74 75 75 76 75 75 75 75 75 74 75 74 73 72 75 74 72 71 71 72 73 75 75 72 74 73 70 70 69 66 69 71 74 71 71 72 72 72 72
70 72 73 73 74 74 74 74 75 75 75 75 74 74 75 73 73 73 73 74 73 72 73 73 73 75 72 68 73 74 71 69 69 69 71 73 75 72 71 72 72 72 73
69 71 72 73 73 72 73 72 73 73 74 73 73 73 74 73 72 73 73 75 73 73 70 74 75 73 73 69 72 74 69 69 69 69 70 73 74 73 73 72 73 73 73
69 71 72 72 72 71 71 72 73 73 73 72 72 72 72 73 72 73 71 72 71 73 72 73 72 71 72 71 72 71 71 70 67 69 70 74 74 73 72 73 73 72 73
69 69 71 71 71 70 69 72 72 72 72 71 71 72 72 72 70 71 71 71 70 73 71 70 72 70 71 71 70 69 67 68 66 69 71 73 73 74 74 72 72 73 71
68 68 70 71 70 70 70 70 71 72 71 71 71 71 72 70 71 71 71 72 71 72 71 69 70 70 71 70 70 69 68 69 67 71 70 73 75 75 74 74 73 72 72
66 66 68 68 70 69 69 70 71 71 71 71 71 72 71 70 71 71 72 72 70 71 71 71 71 71 71 70 69 69 68 69 68 70 70 71 75 75 75 75 75 73 73
65 66 66 67 69 69 69 70 71 71 69 70 70 71 71 70 70 70 70 70 70 71 71 71 70 69 67 63 59 68 68 69 69 69 70 70 72 75 74 75 75 75 74
66 66 67 67 69 69 70 71 70 70 69 69 69 71 71 72 71 71 69 70 72 71 70 70 69 66 63 59 58 59 62 65 65 68 69 69 70 70 73 73 73 74 74
65 65 67 67 69 70 70 72 70 69 69 70 71 71 72 73 73 71 71 71 72 71 70 70 68 64 59 59 61 59 59 60 60 60 60 62 64 69 70 73 73 73 72
64 66 67 67 68 69 71 72 71 70 71 72 71 70 71 74 74 71 72 72 71 72 70 68 66 64 61 62 58 59 60 61 60 62 63 66 67 68 69 70 70 70 73
66 67 67 68 68 68 71 71 70 69 70 71 71 70 72 72 73 72 70 72 71 69 69 67 63 59 59 63 57 55 60 61 59 62 60 64 66 68 68 68 69 70 72
64 66 66 68 69 69 69 70 70 71 71 70 71 72 72 72 72 72 71 71 70 70 68 64 60 61 61 62 57 59 58 57 60 60 58 60 65 67 67 67 68 70 69
62 66 66 68 70 69 71 71 71 71 70 71 71 72 72 72 72 72 71 71 70 68 67 64 62 59 57 59 60 59 57 55 59 62 58 60 62 62 62 61 66 69 68
63 66 66 68 71 70 71 70 69 69 68 68 69 71 72 72 72 73 72 70 70 69 66 64 64 63 58 57 61 62 60 57 57 57 59 59 57 60 59 58 60 69 67
62 65 66 67 71 71 71 69 69 68 68 70 69 70 71 72 72 72 71 69 69 68 66 64 61 63 62 60 62 62 60 61 57 56 55 57 59 58 59 57 58 65 66
62 65 66 68 70 71 71 70 69 68 68 68 68 69 70 71 71 72 72 70 69 67 66 63 61 62 64 62 60 61 59 58 59 59 54 54 55 56 58 57 58 58 62

GFSSE_sfc_dewp_042.txt.gz
Dewpoint
71 72 73 73 74 75 77 76 77 77 77 77 76 76 75 75 75 75 75 74 74 74 73 73 72 73 73 73 72 72 71 71 70 71 72 72 73 73 73 72 73 70 72
71 72 73 73 75 75 76 76 76 76 76 76 76 75 75 75 75 75 74 74 74 73 73 73 72 72 73 73 73 72 71 71 70 69 71 72 72 73 73 71 73 72 71
70 72 72 75 75 75 75 76 75 75 75 75 75 75 75 75 74 74 74 73 73 73 73 73 73 72 72 72 72 72 72 71 70 69 72 70 70 72 72 72 73 72 73
71 72 72 75 76 75 75 76 76 75 75 75 75 75 75 75 74 74 73 73 73 73 72 72 72 73 72 72 72 72 71 71 71 69 71 71 70 73 72 71 72 72 72
71 72 73 75 76 75 75 75 76 76 75 75 75 75 75 74 74 73 73 73 73 73 73 72 71 71 72 71 71 71 71 72 71 70 69 71 72 72 71 70 71 72 73
71 72 74 75 75 75 75 75 75 75 74 74 75 75 74 74 73 73 73 73 73 73 73 72 72 72 71 71 71 71 72 73 73 70 69 72 71 73 71 73 73 73 73
71 72 73 76 75 75 75 75 75 75 75 74 74 74 74 73 73 73 72 73 73 73 72 72 72 72 72 71 71 73 72 73 71 71 71 71 70 73 72 72 72 72 73
71 72 73 75 75 75 74 74 74 75 75 75 74 74 74 73 73 72 71 72 73 72 72 72 71 71 71 72 71 73 73 72 71 71 71 71 73 73 72 72 71 71 73
72 72 73 72 73 74 74 74 74 74 74 75 74 74 74 73 72 72 71 72 72 72 71 72 72 71 71 72 72 73 72 72 71 72 70 72 74 74 72 71 72 69 72
72 73 73 73 73 73 73 74 74 74 74 74 74 74 73 73 72 72 74 73 73 71 71 71 71 71 72 73 72 72 70 71 67 70 72 72 74 72 73 72 72 70 72
72 72 73 73 73 73 73 73 74 74 74 74 74 74 74 73 73 73 73 74 73 72 73 71 72 72 71 73 72 73 71 68 67 69 71 72 73 71 71 72 72 72 72
70 72 72 73 73 73 74 74 73 73 73 74 74 73 74 74 73 73 74 74 75 73 73 72 72 72 71 71 73 73 72 69 69 69 71 72 72 70 70 72 71 72 72
69 71 72 73 73 73 74 73 73 73 73 73 73 73 73 73 73 72 73 72 72 72 72 72 72 72 72 72 72 73 72 69 70 69 69 72 73 71 70 71 72 72 72
68 71 72 73 73 72 72 72 72 72 72 72 72 72 72 72 72 72 72 72 71 73 73 71 72 71 72 72 72 71 71 71 69 67 69 73 73 73 73 72 72 72 72
68 69 71 73 73 72 71 71 71 71 72 72 71 71 71 72 71 71 72 72 72 73 73 72 71 71 72 71 71 71 68 69 68 68 69 73 73 73 72 72 72 72 71
68 69 70 72 72 72 71 70 71 71 71 71 71 71 71 73 72 71 72 72 72 72 73 72 73 72 71 70 69 71 69 68 68 68 70 69 73 73 73 71 72 72 72
68 69 70 71 72 71 70 69 70 70 71 71 71 71 71 72 72 72 72 71 71 72 72 72 71 71 66 62 62 68 70 70 69 69 70 70 69 73 73 74 73 73 72
68 69 70 70 70 70 70 69 70 70 70 71 71 72 72 72 72 72 71 71 72 72 72 71 71 68 63 62 64 62 63 69 69 69 70 70 70 69 71 72 72 74 72
68 68 69 70 69 70 70 70 70 70 71 71 71 72 72 72 72 72 71 71 72 72 71 71 70 67 62 63 63 62 63 63 62 61 68 70 70 70 70 71 73 72 69
67 68 68 69 69 70 70 70 71 70 70 70 70 71 72 72 73 72 72 71 72 72 71 70 68 65 63 63 58 60 63 62 64 64 65 66 68 67 70 71 71 71 72
66 67 67 68 69 69 69 69 70 69 69 70 71 71 72 72 74 73 73 72 72 72 71 70 66 64 62 63 60 60 63 63 63 63 66 68 69 70 70 70 70 71 71
65 66 67 68 68 68 69 69 70 70 69 70 72 71 72 73 73 72 72 72 72 70 70 69 66 63 63 63 60 60 60 61 62 62 64 67 68 68 68 69 70 70 71
65 66 67 68 68 69 69 69 70 70 71 70 70 71 71 72 73 74 73 71 72 71 69 68 65 63 62 62 61 62 59 57 61 62 62 66 67 66 65 68 69 69 69
65 66 66 68 68 69 69 69 69 68 68 69 69 71 72 72 72 73 73 72 71 70 69 67 64 63 62 62 64 62 61 61 60 59 61 62 62 63 63 63 68 69 68
64 65 66 67 68 69 69 69 68 68 68 69 70 70 71 72 73 72 72 72 71 70 70 67 66 64 61 62 63 62 62 60 60 59 57 59 61 61 62 61 62 68 68
63 64 65 67 68 68 69 69 69 68 68 68 69 69 70 71 72 73 72 72 72 70 69 67 66 65 63 64 63 63 61 61 60 59 58 58 59 60 60 61 60 63 68

GFSSE_sfc_dewp_045.txt.gz
Dewpoint
71 73 74 73 73 75 76 76 77 78 77 77 76 75 75 75 75 75 74 74 74 74 73 73 73 73 73 72 72 71 71 71 71 72 72 73 73 73 71 72 71 68 72
71 72 74 74 75 76 77 77 77 77 76 76 76 75 75 75 75 74 74 74 74 74 73 72 73 73 73 73 72 72 72 70 69 71 71 72 73 73 72 73 72 70 73
70 72 72 75 76 76 76 77 76 75 75 76 75 75 75 74 74 74 74 74 74 73 73 73 73 73 72 72 72 72 72 71 69 71 72 68 69 72 72 73 73 72 72
69 70 72 76 76 75 76 76 76 74 75 75 75 75 74 74 74 74 73 73 73 72 72 73 73 72 72 72 72 71 71 71 69 71 69 68 68 72 71 73 73 72 72
69 69 74 76 76 75 75 75 76 75 75 75 75 75 74 74 74 73 73 73 73 73 73 72 72 72 72 71 71 71 71 72 71 68 70 70 68 71 71 71 72 73 72
68 69 74 76 75 75 75 75 75 75 75 75 75 74 74 74 73 73 73 73 73 73 73 72 72 71 71 71 71 71 72 73 72 68 70 71 69 70 71 72 72 73 73
67 70 72 76 76 75 75 75 74 74 74 74 74 74 74 73 73 73 73 73 74 73 72 72 72 72 71 71 71 71 72 72 72 70 69 68 69 73 72 73 72 73 73
67 70 71 75 76 75 75 75 74 74 74 74 74 74 73 73 73 72 72 73 73 73 72 71 71 71 71 71 72 72 72 72 70 69 69 69 71 72 73 72 71 73 73
69 70 71 71 73 74 74 74 74 74 74 74 74 74 73 73 72 72 72 72 72 71 71 72 71 71 71 72 72 72 73 72 70 69 65 67 72 72 72 71 70 72 73
69 71 72 72 71 72 72 74 74 74 74 74 74 73 73 73 72 72 73 73 72 71 71 71 71 71 71 72 72 71 72 71 68 69 68 69 72 73 71 72 70 72 72
69 69 70 70 72 73 72 72 74 74 74 74 73 73 73 73 73 72 73 73 72 72 72 72 71 72 71 72 73 71 69 63 66 68 68 72 72 71 71 73 72 71 72
68 69 69 69 70 72 70 73 73 72 71 72 73 74 73 73 73 72 73 74 74 73 73 72 73 72 71 69 69 73 70 67 66 69 68 72 72 71 71 72 72 72 72
67 67 68 70 71 71 71 72 72 71 71 72 75 74 73 72 73 71 72 72 72 72 71 71 71 71 71 70 71 70 71 69 68 67 70 72 72 70 70 71 71 72 72
67 68 69 72 73 73 71 71 72 70 71 70 71 74 72 70 72 73 72 73 73 73 74 72 71 73 72 72 71 71 70 69 68 65 69 71 73 73 71 71 73 71 72
66 67 69 72 73 74 74 72 72 72 69 69 71 71 70 70 74 73 74 73 73 73 73 74 72 72 73 71 72 71 69 70 69 67 68 73 73 72 72 72 72 72 72
66 67 69 71 73 74 73 74 73 72 71 71 69 70 72 71 74 72 73 72 72 73 73 73 76 73 72 70 69 71 71 70 71 69 67 69 72 72 72 71 72 72 72
65 67 68 70 72 74 74 73 72 71 69 69 68 71 71 72 74 75 73 72 71 74 74 74 75 74 66 62 64 70 70 71 70 69 69 69 68 72 71 71 72 72 72
65 67 69 68 70 72 73 73 71 69 69 68 68 69 72 73 75 75 72 72 73 73 76 76 72 70 64 63 65 63 65 69 71 70 70 69 68 65 70 73 73 72 71
68 68 69 70 69 72 73 72 72 71 69 68 69 71 74 74 74 74 72 72 74 72 73 73 71 69 64 64 61 63 65 65 66 60 68 70 70 68 67 71 72 73 70
68 70 71 70 71 72 72 72 70 69 69 70 70 71 74 74 75 75 73 73 73 72 72 71 72 68 65 64 58 62 64 64 66 65 66 65 67 67 68 71 69 68 71
68 70 71 71 73 71 70 69 68 66 68 70 71 74 74 74 75 76 74 73 73 76 73 74 71 69 65 66 62 62 63 64 65 65 66 66 68 68 70 71 70 72 68
68 69 71 72 73 72 70 70 68 69 69 70 72 74 74 74 75 74 75 73 74 72 74 73 71 66 63 65 61 62 56 60 63 63 67 66 66 66 66 67 69 71 72
67 70 71 73 74 73 73 71 71 71 71 70 70 72 72 74 74 75 74 73 74 74 71 73 71 69 61 65 65 61 58 55 59 63 65 67 69 66 63 65 68 70 70
67 68 71 72 74 73 74 72 73 68 68 69 70 71 72 74 74 74 75 75 75 72 73 72 70 68 66 62 65 65 65 64 56 57 61 63 66 65 66 63 65 68 67
66 66 69 72 73 74 74 74 71 71 69 69 70 74 75 75 74 74 75 75 75 73 74 73 71 69 65 63 62 63 65 63 65 60 56 59 63 63 64 63 62 65 65
64 66 67 71 73 74 74 74 74 73 72 69 71 70 70 70 71 75 74 75 75 74 74 73 72 70 68 65 62 64 60 59 59 60 59 61 59 61 61 62 62 62 64

GFSSE_sfc_dewp_048.txt.gz
Dewpoint
71 72 73 74 75 76 76 77 77 77 77 77 75 75 75 75 75 74 74 74 74 73 73 73 73 73 72 72 72 72 71 71 72 72 73 73 73 71 72 72 72 66 73
70 70 73 75 75 76 77 77 77 77 76 76 75 75 75 75 75 74 74 74 74 73 73 73 73 73 73 72 72 72 71 70 71 71 72 73 73 72 73 72 71 70 73
69 72 72 75 75 76 76 77 76 76 75 75 75 75 75 74 75 74 74 74 74 73 73 73 73 73 73 73 72 72 72 70 70 71 71 68 69 72 72 73 72 72 73
68 70 73 75 76 76 76 76 76 75 75 75 76 75 75 74 74 73 73 73 73 73 73 73 73 72 72 72 72 72 72 69 70 70 69 66 64 71 72 72 73 72 71
68 70 72 76 77 76 75 75 75 75 75 75 75 75 74 74 73 73 74 73 73 73 72 72 72 72 72 72 71 71 72 71 69 69 67 69 67 70 72 72 72 72 70
66 68 74 76 75 75 75 75 75 75 75 75 75 74 74 74 73 74 73 73 73 73 73 73 72 72 71 71 70 71 72 72 72 65 68 68 69 70 70 70 72 72 72
65 67 71 76 76 76 76 75 75 75 75 75 74 74 74 73 73 74 73 73 73 73 72 72 72 72 71 71 71 71 71 73 67 66 66 66 68 72 72 73 72 73 73
64 64 69 75 76 75 76 75 75 74 74 74 74 74 73 73 73 73 73 73 73 72 72 71 71 71 71 71 72 72 71 71 68 64 65 66 72 72 73 72 73 73 72
64 64 68 70 73 75 75 75 75 74 74 74 74 74 73 73 72 72 72 73 72 71 71 72 71 71 71 72 73 73 72 70 68 65 63 66 72 71 72 70 73 73 73
64 65 68 70 70 71 72 74 74 74 74 74 74 73 73 73 72 73 73 73 72 71 71 71 71 71 70 72 73 72 72 71 67 68 61 68 72 72 71 71 71 72 72
64 64 64 66 69 70 69 71 74 74 74 74 74 73 73 70 71 71 72 73 72 72 72 72 72 72 71 73 73 71 71 63 67 66 64 73 73 72 72 72 70 73 72
65 64 64 64 66 69 65 71 70 69 68 69 71 72 71 72 72 71 72 73 72 72 72 72 72 72 73 68 69 72 67 65 66 67 67 72 72 71 72 72 72 72 72
65 63 63 66 67 67 67 68 67 66 67 69 73 73 72 72 72 71 70 69 70 72 70 70 69 67 67 67 66 62 67 67 65 66 69 72 71 71 72 72 72 72 72
65 64 64 67 70 69 67 66 66 64 66 66 68 72 73 70 72 73 69 70 72 70 70 70 71 70 69 68 66 62 65 66 63 65 69 72 72 71 71 71 72 72 72
65 65 66 69 71 71 71 67 67 66 64 64 67 70 69 70 73 72 75 71 71 70 70 70 70 70 69 68 69 65 59 66 65 64 65 72 73 73 72 72 72 72 73
65 65 67 68 71 71 71 73 70 69 65 66 65 67 71 70 72 71 71 70 70 71 70 71 70 70 70 69 68 66 63 62 68 66 61 69 72 72 72 72 72 72 72
63 65 66 68 69 72 72 72 71 67 65 64 64 69 70 72 73 76 72 70 70 72 72 72 71 70 66 64 65 65 64 65 68 70 65 63 68 73 72 71 71 72 72
63 65 67 66 68 72 72 72 69 66 65 64 64 66 71 72 74 74 71 71 71 73 72 69 70 71 65 63 64 63 62 63 63 67 64 62 61 62 70 72 72 71 71
64 66 67 68 67 70 73 71 70 70 67 64 65 67 71 73 74 74 70 71 75 71 70 71 71 68 66 64 60 61 61 61 60 56 62 65 65 62 63 72 73 72 69
64 66 68 68 70 72 70 72 68 66 66 64 66 67 72 74 75 75 72 74 74 71 70 72 70 70 67 65 55 57 61 61 61 59 63 63 65 64 63 69 68 68 72
64 66 68 70 73 71 70 68 66 64 66 65 68 72 74 75 75 76 72 74 73 71 70 71 70 71 67 67 57 56 59 61 60 60 60 59 61 62 64 65 66 66 68
65 67 70 71 73 73 70 69 66 66 64 66 68 72 74 74 75 75 77 72 74 70 72 71 71 68 66 64 57 58 55 56 57 59 63 60 61 59 60 62 65 68 68
64 66 69 73 74 74 73 70 69 67 67 66 68 70 73 74 74 75 75 75 74 72 69 72 72 71 64 65 64 59 54 53 54 59 63 61 63 60 59 62 64 68 69
63 65 69 73 74 74 74 71 74 65 64 64 68 68 69 73 73 73 75 75 77 70 72 71 71 70 70 62 61 60 64 65 53 55 58 61 62 62 63 60 62 64 64
63 64 68 72 75 75 75 75 70 71 63 65 67 74 76 75 74 72 74 74 75 73 73 74 73 73 68 64 56 60 62 59 63 56 55 57 60 60 61 61 60 60 62
62 64 67 72 76 76 75 74 76 75 71 67 70 69 69 70 70 75 73 75 76 75 74 74 75 74 72 68 59 60 57 56 56 57 55 59 58 59 60 61 61 60 60